25776 USTR-USTR

Flight info

Callsign 25776
Flight time N/A
Altitude 3000
Route N0120A030 5729N06606E 5738N06622E 5728N06654E 5746N06637E 5758N06704E 5758N06634E 5813N06622E 5757N06611E 5756N06546E 5745N06604E 5728N06541E 5738N06621E 5729N06606E 5717N06551E 5717N06731E 5717N06805E 5724N06822E 5753N06824E 5818N06820E 5826N06756E 5822N06732E 5811N06718E 5753N06725E 5748N06753E 5748N06824E 5724N06822E 5716N06805E 5710N06805E 5711N06845E 5801N06845E 5739N06911E 5737N06918E 5739N06925E 5760N06943E 5711N06943E 5711N06959E 5757N07028E 5733N07043E 5733N07012E 5757N07028E 5712N07054E 5712N07108E 5733N07138E 5732N07125E 5733N07117E 5736N07110E 5742N07108E 5748N07113E 5750N07124E 5749N07138E 5713N07138E 5659N07138E 5701N07031E 5702N06606E
Aircraft MI8/L-V/N

Departure

Time 2026-05-08 15:53
Airport Roshchino International Airport (USTR)

Arrival

Time N/A
Airport Roshchino International Airport (USTR)
Time Latitude Longitude Altitude Speed Heading
2026-05-08 15:43 57.17873 65.35066 335 ft 0 kts 226°
2026-05-08 15:50 57.17872 65.35065 340 ft 2 kts 229°
2026-05-08 15:50 57.17863 65.35009 350 ft 10 kts 300°
2026-05-08 15:50 57.17934 65.34859 348 ft 20 kts 309°
2026-05-08 15:50 57.18044 65.34666 348 ft 22 kts 304°
2026-05-08 15:51 57.18150 65.34464 346 ft 22 kts 305°
2026-05-08 15:51 57.18261 65.34262 346 ft 22 kts 305°
2026-05-08 15:51 57.18371 65.34054 349 ft 23 kts 306°
2026-05-08 15:51 57.18483 65.33850 344 ft 23 kts 306°
2026-05-08 15:52 57.18587 65.33654 342 ft 16 kts 307°
2026-05-08 15:52 57.18610 65.33545 341 ft 7 kts 295°
2026-05-08 15:52 57.18616 65.33490 338 ft 1 kts 296°
2026-05-08 15:52 57.18628 65.33460 397 ft 17 kts 300°
2026-05-08 15:53 57.18821 65.33104 550 ft 56 kts 319°
2026-05-08 15:53 57.19202 65.32579 727 ft 82 kts 322°
2026-05-08 15:53 57.19828 65.32480 930 ft 96 kts 16°
2026-05-08 15:53 57.20261 65.33332 1301 ft 94 kts 70°
2026-05-08 15:54 57.20361 65.34486 1658 ft 93 kts 84°
2026-05-08 15:54 57.20432 65.35715 1840 ft 103 kts 83°
2026-05-08 15:54 57.20562 65.37163 1930 ft 123 kts 77°
2026-05-08 15:54 57.20800 65.38761 1972 ft 133 kts 71°
2026-05-08 15:55 57.21141 65.40384 1985 ft 136 kts 65°
2026-05-08 15:55 57.22037 65.43571 1994 ft 144 kts 59°
2026-05-08 15:55 57.22558 65.45132 2001 ft 142 kts 57°
2026-05-08 15:56 57.23105 65.46662 2000 ft 142 kts 56°
2026-05-08 15:56 57.23661 65.48155 1998 ft 140 kts 55°
2026-05-08 15:56 57.24224 65.49621 1999 ft 139 kts 54°
2026-05-08 15:56 57.24793 65.51073 1997 ft 141 kts 53°
2026-05-08 15:57 57.25362 65.52512 1999 ft 140 kts 53°
2026-05-08 15:57 57.25749 65.53485 2004 ft 139 kts 53°
2026-05-08 15:57 57.26520 65.55406 2003 ft 141 kts 53°
2026-05-08 15:57 57.27109 65.56868 1998 ft 142 kts 53°
2026-05-08 15:58 57.27505 65.57850 2001 ft 141 kts 53°
2026-05-08 15:58 57.28091 65.59299 1999 ft 141 kts 52°
2026-05-08 15:58 57.28679 65.60753 1999 ft 141 kts 53°
2026-05-08 15:58 57.29266 65.62203 2002 ft 140 kts 53°
2026-05-08 15:59 57.29848 65.63638 1999 ft 142 kts 52°
2026-05-08 15:59 57.30448 65.65120 2001 ft 143 kts 52°
2026-05-08 15:59 57.31044 65.66593 1999 ft 142 kts 53°
2026-05-08 15:59 57.31634 65.68048 1997 ft 142 kts 53°
2026-05-08 16:00 57.32215 65.69485 1997 ft 141 kts 53°
2026-05-08 16:00 57.32809 65.70956 1998 ft 140 kts 53°
2026-05-08 16:00 57.33383 65.72381 1998 ft 140 kts 53°
2026-05-08 16:00 57.33962 65.73818 2000 ft 139 kts 53°
2026-05-08 16:01 57.34543 65.75258 2001 ft 140 kts 53°
2026-05-08 16:01 57.35120 65.76690 2003 ft 139 kts 53°
2026-05-08 16:01 57.35700 65.78130 2000 ft 139 kts 53°
2026-05-08 16:01 57.36277 65.79563 1999 ft 140 kts 53°
2026-05-08 16:02 57.36864 65.81025 2006 ft 141 kts 52°
2026-05-08 16:02 57.37453 65.82488 2001 ft 142 kts 53°
2026-05-08 16:02 57.38047 65.83967 2002 ft 142 kts 53°
2026-05-08 16:02 57.38632 65.85422 2002 ft 140 kts 53°
2026-05-08 16:03 57.39212 65.86867 2000 ft 140 kts 53°
2026-05-08 16:03 57.39789 65.88306 2002 ft 139 kts 53°
2026-05-08 16:03 57.40367 65.89746 2001 ft 139 kts 53°
2026-05-08 16:03 57.40937 65.91168 2000 ft 139 kts 53°
2026-05-08 16:04 57.41513 65.92607 2001 ft 139 kts 53°
2026-05-08 16:04 57.42091 65.94053 2001 ft 139 kts 53°
2026-05-08 16:04 57.42671 65.95502 1999 ft 140 kts 53°
2026-05-08 16:04 57.43249 65.96949 2000 ft 140 kts 53°
2026-05-08 16:05 57.43826 65.98391 2002 ft 140 kts 53°
2026-05-08 16:05 57.44417 65.99870 1998 ft 143 kts 53°
2026-05-08 16:05 57.45014 66.01361 1996 ft 145 kts 53°
2026-05-08 16:05 57.45609 66.02858 2002 ft 142 kts 53°
2026-05-08 16:06 57.46193 66.04322 1999 ft 140 kts 53°
2026-05-08 16:06 57.46774 66.05778 2001 ft 141 kts 53°
2026-05-08 16:06 57.47354 66.07236 2000 ft 140 kts 53°
2026-05-08 16:06 57.47943 66.08683 2003 ft 139 kts 50°
2026-05-08 16:07 57.48613 66.09996 2000 ft 140 kts 44°
2026-05-08 16:07 57.49314 66.11252 2001 ft 139 kts 43°
2026-05-08 16:07 57.50023 66.12492 1999 ft 140 kts 42°
2026-05-08 16:07 57.50731 66.13721 2000 ft 141 kts 42°
2026-05-08 16:08 57.51448 66.14957 2001 ft 140 kts 42°
2026-05-08 16:08 57.52164 66.16188 1999 ft 140 kts 42°
2026-05-08 16:08 57.52879 66.17416 2000 ft 140 kts 42°
2026-05-08 16:08 57.53597 66.18647 2000 ft 140 kts 42°
2026-05-08 16:09 57.54312 66.19872 1999 ft 139 kts 42°
2026-05-08 16:09 57.55023 66.21090 1998 ft 140 kts 42°
2026-05-08 16:09 57.55738 66.22316 1999 ft 140 kts 42°
2026-05-08 16:09 57.56453 66.23543 2001 ft 139 kts 42°
2026-05-08 16:10 57.57167 66.24766 1998 ft 140 kts 42°
2026-05-08 16:10 57.57884 66.25997 2000 ft 140 kts 42°
2026-05-08 16:10 57.58591 66.27210 2002 ft 141 kts 42°
2026-05-08 16:10 57.59319 66.28460 1999 ft 143 kts 42°
2026-05-08 16:11 57.60045 66.29706 1997 ft 142 kts 42°
2026-05-08 16:11 57.60772 66.30954 2000 ft 142 kts 42°
2026-05-08 16:11 57.61492 66.32188 2020 ft 134 kts 41°
2026-05-08 16:11 57.62092 66.33186 2031 ft 98 kts 43°
2026-05-08 16:12 57.62530 66.33910 2002 ft 76 kts 44°
2026-05-08 16:12 57.62932 66.34595 1998 ft 79 kts 42°
2026-05-08 16:12 57.63339 66.35290 2000 ft 79 kts 41°
2026-05-08 16:12 57.63690 66.36071 1998 ft 80 kts 70°
2026-05-08 16:13 57.63615 66.37072 1997 ft 81 kts 119°
2026-05-08 16:13 57.63268 66.38094 1984 ft 108 kts 123°
2026-05-08 16:13 57.62815 66.39387 1988 ft 128 kts 122°
2026-05-08 16:13 57.62315 66.40857 1993 ft 138 kts 121°
2026-05-08 16:14 57.61804 66.42417 1997 ft 143 kts 121°
2026-05-08 16:14 57.61295 66.44015 1993 ft 145 kts 121°
2026-05-08 16:14 57.60792 66.45626 1998 ft 143 kts 120°
2026-05-08 16:14 57.60301 66.47223 2003 ft 141 kts 120°
2026-05-08 16:15 57.59816 66.48811 1999 ft 141 kts 120°
2026-05-08 16:15 57.59331 66.50402 1999 ft 141 kts 120°
2026-05-08 16:15 57.58851 66.51985 2000 ft 141 kts 120°
2026-05-08 16:15 57.58360 66.53598 1997 ft 143 kts 120°
2026-05-08 16:16 57.57874 66.55206 1998 ft 142 kts 120°
2026-05-08 16:16 57.57394 66.56789 1998 ft 141 kts 120°
2026-05-08 16:16 57.56910 66.58388 1998 ft 141 kts 120°
2026-05-08 16:16 57.56431 66.59971 2003 ft 141 kts 120°
2026-05-08 16:17 57.55947 66.61568 1997 ft 142 kts 120°
2026-05-08 16:17 57.55627 66.62624 1998 ft 143 kts 120°
2026-05-08 16:17 57.54967 66.64800 1999 ft 145 kts 120°
2026-05-08 16:17 57.54468 66.66441 2000 ft 145 kts 120°
2026-05-08 16:18 57.53977 66.68063 2001 ft 144 kts 120°
2026-05-08 16:18 57.53487 66.69673 2004 ft 142 kts 120°
2026-05-08 16:18 57.53003 66.71264 2002 ft 144 kts 120°
2026-05-08 16:18 57.52506 66.72894 1996 ft 145 kts 120°
2026-05-08 16:19 57.52013 66.74511 2003 ft 143 kts 120°
2026-05-08 16:19 57.51523 66.76121 2000 ft 143 kts 120°
2026-05-08 16:19 57.51032 66.77729 2002 ft 141 kts 120°
2026-05-08 16:19 57.50543 66.79333 1997 ft 144 kts 120°
2026-05-08 16:20 57.50047 66.80954 1999 ft 144 kts 120°
2026-05-08 16:20 57.49557 66.82555 2000 ft 142 kts 120°
2026-05-08 16:20 57.49070 66.84148 1997 ft 143 kts 120°
2026-05-08 16:20 57.48579 66.85750 2000 ft 142 kts 120°
2026-05-08 16:21 57.48095 66.87330 2000 ft 140 kts 120°
2026-05-08 16:21 57.47616 66.88891 2002 ft 141 kts 120°
2026-05-08 16:21 57.47245 66.90565 2011 ft 141 kts 101°
2026-05-08 16:21 57.47329 66.92357 1998 ft 141 kts 72°
2026-05-08 16:22 57.47872 66.93838 2004 ft 139 kts 42°
2026-05-08 16:22 57.48739 66.94634 1994 ft 142 kts 13°
2026-05-08 16:22 57.49696 66.94549 2031 ft 129 kts 340°
2026-05-08 16:22 57.50412 66.93609 2002 ft 129 kts 310°
2026-05-08 16:23 57.50933 66.92247 2009 ft 129 kts 303°
2026-05-08 16:23 57.51417 66.90845 2000 ft 128 kts 302°
2026-05-08 16:23 57.51896 66.89443 2003 ft 128 kts 302°